[[{"header":{"parameterUnit":"m.s-1","parameterCategory":1,"la1":30.2991,"la2":30.254,"lo1":-89.0895,"lo2":-89.0444,"dy":0.0017,"dx":0.0017,"nx":28,"ny":28,"refTime":"2023-03-16T21:00:00:Z","depth":0,"parameterNumber":2,"parameterNumberName":"U-component_of_WINDS"},"data":[0,0,0,0,0,0,0,0,0,0,0,0,0,0,0,0,0,0,0,0,0,0,0,0,0,0,0,0,0,0,0,0,0,0,0,0,0,0,0,0,0,0,0,0,0,0,0,0,0,0,0,0,0,0,0,0,0,0,-0.4874,-0.4875,0,-0.491,-0.491,-0.491,-0.4893,-0.4892,-0.4891,-0.489,-0.4929,-0.4931,-0.4932,0,0,0,0,0,0,0,0,0,0,0,0,0,-0.4793,-0.4795,-0.4874,-0.4875,-0.4875,-0.491,-0.491,-0.491,-0.4893,-0.4892,-0.4891,-0.489,-0.4928,-0.493,-0.4933,0,0,0,0,0,0,0,0,0,0,0,0,0,-0.4829,-0.4795,-0.4874,-0.4871,-0.4871,-0.4909,-0.491,-0.4911,-0.4893,-0.4892,-0.489,-0.4889,-0.4927,-0.493,-0.4933,-0.4978,0,0,-0.4942,-0.4943,0,0,0,0,0,0,0,0,-0.4827,-0.4832,-0.4871,-0.4871,-0.4871,-0.4895,-0.4896,-0.4933,-0.4894,-0.4885,-0.489,-0.4888,-0.4919,-0.4922,-0.4932,-0.498,-0.4982,-0.4942,-0.4943,-0.4945,-0.4946,0,0,0,0,0,0,0,-0.4824,-0.483,-0.4888,-0.4871,-0.4872,-0.4868,-0.4871,-0.4903,-0.4909,-0.4885,-0.4884,-0.4888,-0.4919,-0.4929,-0.4933,-0.4982,-0.4942,-0.4944,-0.4946,-0.4947,-0.5068,-0.507,0,0,0,0,0,0,-0.4822,-0.4828,-0.4887,-0.4889,-0.4845,-0.487,-0.4874,-0.4889,-0.4909,-0.491,-0.489,-0.4888,-0.4925,-0.493,-0.4934,-0.4988,-0.4945,-0.4947,-0.4949,-0.5067,-0.5069,-0.507,0,0,0,0,0,0,-0.482,-0.4827,-0.4886,-0.4858,-0.4866,-0.4873,-0.489,-0.489,-0.4901,-0.4912,-0.4913,-0.4899,-0.4924,-0.493,-0.4967,-0.4989,-0.4949,-0.4951,-0.5065,-0.5067,-0.5069,-0.5097,0,0,0,0,0,0,-0.4818,-0.4827,-0.4844,-0.4859,-0.4867,-0.4918,-0.4891,-0.4892,-0.4906,-0.4903,-0.4921,-0.4923,-0.4924,-0.4963,-0.497,-0.4993,-0.4953,-0.5063,-0.5066,-0.5069,-0.5094,-0.51,-0.5105,0,0,0,0,0,-0.4815,-0.4851,-0.4845,-0.4852,-0.4889,-0.4919,-0.4924,-0.4923,-0.4908,-0.4925,-0.4932,-0.4922,-0.4985,-0.4967,-0.4974,-0.4998,-0.5062,-0.5065,-0.5068,-0.5092,-0.5099,-0.5105,0,0,0,0,0,0,-0.484,-0.4853,-0.4846,-0.4888,-0.4902,-0.4916,-0.4938,-0.4931,-0.4951,-0.4948,-0.4947,-0.4951,-0.4989,-0.4997,-0.4976,-0.5043,-0.5021,-0.5026,-0.5036,-0.5043,-0.5049,-0.5046,-0.4956,0,0,0,0,0,-0.485,-0.4873,-0.4883,-0.4919,-0.4927,-0.4931,-0.4945,-0.4942,-0.4958,-0.4964,-0.4974,-0.4989,-0.5013,-0.5028,-0.505,-0.5095,-0.5099,-0.5115,-0.512,-0.5125,-0.513,-0.5153,-0.5161,-0.5081,-0.5081,-0.5081,0,0,-0.4871,-0.4881,-0.4896,-0.4924,-0.4935,-0.496,-0.4937,-0.4964,-0.4982,-0.4969,-0.5004,-0.5011,-0.5028,-0.5069,-0.5088,-0.5077,-0.5152,-0.5129,-0.5132,-0.5135,-0.5158,-0.5165,-0.5172,-0.5084,-0.5083,-0.5083,0,0,-0.4923,-0.4933,-0.4964,-0.4975,-0.4991,-0.4993,-0.5001,-0.5015,-0.5019,-0.5054,-0.5044,-0.5066,-0.5106,-0.5119,-0.5131,-0.5185,-0.5178,-0.5192,-0.5221,-0.5244,-0.5251,-0.5256,-0.5276,-0.5283,-0.5197,-0.5197,-0.5197,0,-0.4949,-0.4984,-0.4981,-0.5008,-0.5021,-0.5008,-0.504,-0.5051,-0.5074,-0.5083,-0.507,-0.512,-0.513,-0.5174,-0.5187,-0.5197,-0.5205,-0.5191,-0.525,-0.5255,-0.5261,-0.528,-0.5287,-0.5199,-0.5198,-0.5198,-0.5198,0,-0.5015,-0.504,-0.5062,-0.5084,-0.5099,-0.5128,-0.5129,-0.5145,-0.5141,-0.5145,-0.518,-0.5192,-0.5216,-0.5226,-0.5223,-0.5269,-0.5262,-0.525,-0.5228,-0.527,-0.5288,-0.5295,-0.5201,-0.5201,-0.52,-0.52,0,0,-0.5085,-0.5103,-0.5111,-0.5121,-0.5137,-0.5156,-0.5184,-0.5207,-0.522,-0.5236,-0.526,-0.5293,-0.5282,-0.5295,-0.5293,-0.5313,-0.5356,-0.5298,-0.5299,-0.5309,-0.5407,-0.5417,-0.5426,-0.535,-0.5351,-0.5352,-0.5406,0,-0.5139,-0.5188,-0.5185,-0.5231,-0.5254,-0.5242,-0.5266,-0.5279,-0.5283,-0.5303,-0.5307,-0.5331,-0.5313,-0.5321,-0.534,-0.5347,-0.5376,-0.5342,-0.5373,-0.5374,-0.537,-0.5435,-0.5446,-0.5496,-0.5413,-0.5414,-0.5415,0,-0.5209,-0.5225,-0.5274,-0.5286,-0.5295,-0.5318,-0.5337,-0.5356,-0.537,-0.5372,-0.5385,-0.5379,-0.5408,-0.5384,-0.5424,-0.5402,-0.5414,-0.5418,-0.542,-0.5424,-0.5398,-0.5442,-0.5512,-0.552,-0.5426,-0.5425,-0.5424,0,-0.5256,-0.5291,-0.5324,-0.5332,-0.5347,-0.5363,-0.5369,-0.5382,-0.5395,-0.5412,-0.5421,-0.5441,-0.5453,-0.5469,-0.5469,-0.5451,-0.5509,-0.5485,-0.5512,-0.5512,-0.5526,-0.5525,-0.56,-0.5532,-0.5532,-0.5531,-0.5531,0,-0.5317,-0.5347,-0.5346,-0.5366,-0.54,-0.5395,-0.5429,-0.5434,-0.5445,-0.5466,-0.5456,-0.5477,-0.5474,-0.5495,-0.5495,-0.5528,-0.5533,-0.5536,-0.5535,-0.5537,-0.5537,-0.5546,-0.5543,-0.5533,-0.5533,-0.5533,-0.5532,0,-0.5377,-0.5376,-0.5412,-0.5422,-0.5425,-0.5449,-0.5458,-0.5478,-0.5479,-0.5507,-0.5513,-0.5517,-0.554,-0.5541,-0.5569,-0.5568,-0.5609,-0.5604,-0.5604,-0.5604,-0.563,-0.5628,-0.5715,-0.5726,-0.5649,-0.565,-0.565,0,-0.5416,-0.5439,-0.5451,-0.5464,-0.5471,-0.5493,-0.5506,-0.5502,-0.5516,-0.5533,-0.555,-0.5573,-0.5591,-0.5629,-0.5635,-0.5655,-0.5652,-0.5681,-0.5655,-0.5656,-0.5653,-0.5652,-0.5655,-0.5686,-0.5687,-0.5688,-0.5688,0,-0.5487,-0.5485,-0.5504,-0.5522,-0.5538,-0.5552,-0.5566,-0.5577,-0.5575,-0.5591,-0.5615,-0.5628,-0.5656,-0.5678,-0.5698,-0.5705,-0.5697,-0.5696,-0.5703,-0.5706,-0.5705,-0.5707,-0.5619,-0.5695,-0.5694,-0.5693,-0.5693,-0.5693,-0.5538,-0.5557,-0.5568,-0.559,-0.5599,-0.5611,-0.563,-0.5633,-0.5653,-0.5674,-0.567,-0.5697,-0.5709,-0.5734,-0.5743,-0.5764,-0.5754,-0.5764,-0.5767,-0.577,-0.5773,-0.5701,-0.5767,-0.5767,-0.5767,-0.5767,-0.5767,0,-0.5609,-0.5614,-0.5634,-0.5652,-0.5669,-0.5657,-0.5671,-0.5686,-0.5709,-0.5721,-0.5738,-0.5764,-0.5786,-0.5792,-0.5812,-0.5828,-0.5824,-0.5833,-0.5833,-0.5835,-0.5781,-0.5773,-0.5836,-0.5836,-0.5836,-0.5836,-0.5836,-0.5836,-0.5647,-0.568,-0.5679,-0.5716,-0.5721,-0.5746,-0.5755,-0.5767,-0.5776,-0.5806,-0.5823,-0.5826,-0.5836,-0.5856,-0.5875,-0.5877,-0.5885,-0.5896,-0.5896,-0.5845,-0.5839,-0.5832,-0.5825,-0.5898,-0.5898,-0.5948,-0.5949,-0.5949]},{"header":{"parameterUnit":"m.s-1","parameterCategory":1,"la1":30.2991,"la2":30.254,"lo1":-89.0895,"lo2":-89.0444,"dy":0.0017,"dx":0.0017,"nx":28,"ny":28,"refTime":"2023-03-16T21:00:00:Z","depth":0,"parameterNumber":3,"parameterNumberName":"V-component_of_WINDS"},"data":[0,0,0,0,0,0,0,0,0,0,0,0,0,0,0,0,0,0,0,0,0,0,0,0,0,0,0,0,0,0,0,0,0,0,0,0,0,0,0,0,0,0,0,0,0,0,0,0,0,0,0,0,0,0,0,0,0,0,-7.5526,-7.5527,0,-7.5619,-7.562,-7.5621,-7.5541,-7.5538,-7.5535,-7.5532,-7.5622,-7.5627,-7.5632,0,0,0,0,0,0,0,0,0,0,0,0,0,-7.5273,-7.5278,-7.5526,-7.5527,-7.5528,-7.5619,-7.562,-7.5621,-7.5542,-7.5538,-7.5534,-7.553,-7.562,-7.5626,-7.5633,0,0,0,0,0,0,0,0,0,0,0,0,0,-7.5376,-7.528,-7.5526,-7.55,-7.5498,-7.5619,-7.562,-7.5622,-7.5543,-7.5538,-7.5533,-7.5528,-7.5618,-7.5626,-7.5634,-7.5783,0,0,-7.5659,-7.5662,0,0,0,0,0,0,0,0,-7.537,-7.5385,-7.5502,-7.5502,-7.55,-7.5564,-7.5564,-7.5676,-7.5544,-7.5526,-7.5532,-7.5526,-7.5606,-7.5615,-7.5643,-7.5787,-7.5791,-7.566,-7.5665,-7.5668,-7.567,0,0,0,0,0,0,0,-7.5363,-7.5381,-7.5562,-7.5504,-7.5503,-7.5481,-7.549,-7.5585,-7.5592,-7.5527,-7.5521,-7.5534,-7.5604,-7.5635,-7.5645,-7.5793,-7.5659,-7.5667,-7.5672,-7.5675,-7.6063,-7.6068,0,0,0,0,0,0,-7.536,-7.5375,-7.5559,-7.5565,-7.5422,-7.549,-7.55,-7.5548,-7.5591,-7.5593,-7.5538,-7.553,-7.5624,-7.5635,-7.5647,-7.5825,-7.5668,-7.5676,-7.568,-7.6057,-7.6064,-7.607,0,0,0,0,0,0,-7.5354,-7.5377,-7.5556,-7.5469,-7.549,-7.5499,-7.5554,-7.5553,-7.5583,-7.5599,-7.56,-7.5569,-7.562,-7.5636,-7.575,-7.5826,-7.5679,-7.5687,-7.6051,-7.6059,-7.6067,-7.6181,0,0,0,0,0,0,-7.5348,-7.5375,-7.5434,-7.5471,-7.5495,-7.5659,-7.5559,-7.5558,-7.5598,-7.5589,-7.5628,-7.563,-7.5618,-7.5738,-7.5758,-7.5835,-7.5693,-7.6044,-7.6055,-7.6064,-7.617,-7.6191,-7.621,0,0,0,0,0,-7.5339,-7.5461,-7.5437,-7.546,-7.5569,-7.5664,-7.5677,-7.5662,-7.5605,-7.5663,-7.5673,-7.5629,-7.5815,-7.5751,-7.5772,-7.5853,-7.6039,-7.6052,-7.6063,-7.6161,-7.6187,-7.6209,0,0,0,0,0,0,-7.5431,-7.5465,-7.5439,-7.5578,-7.5619,-7.565,-7.5723,-7.5691,-7.5747,-7.5735,-7.5712,-7.5722,-7.5843,-7.5859,-7.5787,-7.5999,-7.5918,-7.5935,-7.5984,-7.6009,-7.6029,-7.6022,-7.57,0,0,0,0,0,-7.5468,-7.5544,-7.5569,-7.5689,-7.5711,-7.5714,-7.5754,-7.5739,-7.578,-7.5796,-7.5815,-7.5854,-7.5921,-7.5966,-7.6029,-7.6172,-7.6178,-7.6238,-7.6258,-7.6274,-7.6289,-7.6365,-7.6391,-7.6109,-7.6109,-7.6109,0,0,-7.5544,-7.5572,-7.5621,-7.5708,-7.5738,-7.5816,-7.5728,-7.5814,-7.5871,-7.5808,-7.5918,-7.5933,-7.5975,-7.6105,-7.6162,-7.6122,-7.6368,-7.6289,-7.6302,-7.6308,-7.638,-7.6406,-7.643,-7.6118,-7.6116,-7.6115,0,0,-7.5722,-7.5752,-7.5854,-7.5886,-7.5933,-7.5934,-7.5959,-7.5996,-7.6004,-7.6113,-7.6068,-7.6134,-7.6251,-7.6283,-7.6314,-7.6504,-7.6465,-7.6525,-7.6629,-7.6703,-7.6726,-7.6745,-7.6812,-7.6837,-7.654,-7.654,-7.654,0,-7.581,-7.5927,-7.591,-7.6,-7.6039,-7.5988,-7.609,-7.6121,-7.6186,-7.6213,-7.6167,-7.6312,-7.6337,-7.6473,-7.6519,-7.6547,-7.6573,-7.6521,-7.6724,-7.6743,-7.6761,-7.6825,-7.6851,-7.6547,-7.6546,-7.6546,-7.6545,0,-7.6033,-7.6115,-7.6192,-7.6257,-7.6304,-7.64,-7.6396,-7.6446,-7.6426,-7.6431,-7.6543,-7.6571,-7.6639,-7.6669,-7.6651,-7.6802,-7.6776,-7.6728,-7.6645,-7.6796,-7.6855,-7.6879,-7.6557,-7.6555,-7.6553,-7.6551,0,0,-7.6272,-7.6327,-7.6356,-7.6385,-7.6432,-7.6494,-7.6587,-7.6654,-7.6697,-7.6743,-7.6819,-7.6919,-7.6874,-7.691,-7.6894,-7.6959,-7.7107,-7.6903,-7.6903,-7.694,-7.7275,-7.7311,-7.734,-7.7082,-7.7086,-7.709,-7.7271,0,-7.6452,-7.6615,-7.6603,-7.6756,-7.6831,-7.6782,-7.6863,-7.69,-7.6907,-7.6969,-7.6976,-7.7047,-7.6984,-7.7005,-7.7067,-7.7076,-7.7174,-7.7063,-7.7151,-7.7154,-7.7142,-7.7371,-7.7409,-7.7579,-7.7294,-7.7298,-7.7301,0,-7.6684,-7.674,-7.6902,-7.6938,-7.6968,-7.7041,-7.7102,-7.7163,-7.7203,-7.7203,-7.7244,-7.7217,-7.7308,-7.7224,-7.7348,-7.7273,-7.7307,-7.7317,-7.7323,-7.7331,-7.7237,-7.7384,-7.7633,-7.7658,-7.7338,-7.7335,-7.7332,0,-7.6842,-7.6957,-7.7069,-7.7095,-7.714,-7.7192,-7.7213,-7.7248,-7.729,-7.7342,-7.7368,-7.7429,-7.7463,-7.751,-7.75,-7.744,-7.7626,-7.7541,-7.7628,-7.7628,-7.7669,-7.7667,-7.7927,-7.7693,-7.7692,-7.7692,-7.7691,0,-7.7045,-7.7145,-7.714,-7.7209,-7.732,-7.7303,-7.7412,-7.7426,-7.7458,-7.7527,-7.7488,-7.7553,-7.7536,-7.7599,-7.7591,-7.7695,-7.771,-7.7712,-7.7709,-7.7716,-7.7716,-7.7738,-7.7726,-7.7698,-7.7697,-7.7696,-7.7695,0,-7.724,-7.7241,-7.7359,-7.7392,-7.7403,-7.7483,-7.751,-7.7574,-7.7578,-7.7665,-7.7685,-7.769,-7.7763,-7.7758,-7.7839,-7.7834,-7.7962,-7.7945,-7.7949,-7.7945,-7.8032,-7.8024,-7.8316,-7.8353,-7.8095,-7.8097,-7.8099,0,-7.7369,-7.7446,-7.7487,-7.7532,-7.7557,-7.7628,-7.7671,-7.7656,-7.7702,-7.7753,-7.781,-7.788,-7.7935,-7.8053,-7.8063,-7.8125,-7.8109,-7.8207,-7.8118,-7.8122,-7.811,-7.8106,-7.8113,-7.8224,-7.8227,-7.823,-7.8232,0,-7.7598,-7.7595,-7.7658,-7.7723,-7.7775,-7.7824,-7.7868,-7.7906,-7.7896,-7.7949,-7.8024,-7.8067,-7.8151,-7.822,-7.8279,-7.8298,-7.8263,-7.826,-7.8283,-7.8291,-7.829,-7.8291,-7.7997,-7.8253,-7.8251,-7.8249,-7.8248,-7.8247,-7.7764,-7.7829,-7.787,-7.7941,-7.7974,-7.8016,-7.8078,-7.809,-7.8153,-7.8222,-7.8208,-7.8293,-7.8329,-7.8405,-7.843,-7.8494,-7.8458,-7.8492,-7.8501,-7.8509,-7.8519,-7.828,-7.8505,-7.8504,-7.8503,-7.8503,-7.8502,0,-7.7991,-7.8014,-7.808,-7.8145,-7.8201,-7.8165,-7.8212,-7.8261,-7.8337,-7.8375,-7.843,-7.8516,-7.8583,-7.8598,-7.8662,-7.871,-7.8696,-7.8727,-7.8723,-7.8728,-7.8548,-7.8521,-7.8738,-7.8738,-7.8738,-7.8738,-7.8738,-7.8738,-7.8115,-7.8224,-7.8226,-7.835,-7.8371,-7.8455,-7.8485,-7.8524,-7.8554,-7.8652,-7.8709,-7.8719,-7.8747,-7.8812,-7.8871,-7.8874,-7.8899,-7.8937,-7.8933,-7.8764,-7.8741,-7.8718,-7.8693,-7.8943,-7.8943,-7.9108,-7.911,-7.9111]}]]